[[{"header":{"parameterUnit":"m.s-1","parameterCategory":1,"la1":30.2991,"la2":30.254,"lo1":-89.0895,"lo2":-89.0444,"dy":0.0017,"dx":0.0017,"nx":28,"ny":28,"refTime":"2024-07-19T09:00:00:Z","depth":0,"parameterNumber":2,"parameterNumberName":"U-component_of_WINDS"},"data":[0,0,0,0,0,0,0,0,0,0,0,0,0,0,0,0,0,0,0,0,0,0,0,0,0,0,0,0,0,0,0,0,0,0,0,0,0,0,0,0,0,0,0,0,0,0,0,0,0,0,0,0,0,0,0,0,0,0,1.524,1.524,0,1.5251,1.5251,1.5251,1.5233,1.5232,1.5231,1.5231,1.5241,1.5242,1.5243,0,0,0,0,0,0,0,0,0,0,0,0,0,1.52,1.5201,1.524,1.524,1.524,1.5251,1.5251,1.5251,1.5233,1.5232,1.5231,1.5231,1.5241,1.5242,1.5243,0,0,0,0,0,0,0,0,0,0,0,0,0,1.5215,1.5201,1.524,1.5232,1.5232,1.5251,1.5251,1.5251,1.5233,1.5232,1.5231,1.523,1.524,1.5242,1.5243,1.527,0,0,1.5247,1.5247,0,0,0,0,0,0,0,0,1.5214,1.5216,1.5233,1.5233,1.5232,1.524,1.5241,1.5258,1.5233,1.5232,1.5231,1.523,1.5241,1.5242,1.5247,1.527,1.5271,1.5247,1.5248,1.5248,1.5249,0,0,0,0,0,0,0,1.5213,1.5216,1.5244,1.5233,1.5233,1.5227,1.5228,1.5244,1.5242,1.5232,1.5231,1.5233,1.5241,1.5245,1.5247,1.5271,1.5247,1.5248,1.5249,1.5249,1.5315,1.5316,0,0,0,0,0,0,1.5213,1.5215,1.5244,1.5245,1.5221,1.5229,1.523,1.5238,1.5242,1.5241,1.5234,1.5232,1.5244,1.5245,1.5247,1.5277,1.5248,1.525,1.525,1.5314,1.5315,1.5316,0,0,0,0,0,0,1.5212,1.5216,1.5243,1.5229,1.5232,1.5231,1.524,1.5239,1.5243,1.5243,1.5242,1.5239,1.5243,1.5245,1.5264,1.5277,1.525,1.5251,1.5313,1.5314,1.5316,1.5338,0,0,0,0,0,0,1.5211,1.5216,1.5227,1.523,1.5233,1.5261,1.5241,1.524,1.5246,1.5244,1.5247,1.5247,1.5242,1.5262,1.5265,1.5278,1.5252,1.5312,1.5314,1.5315,1.5336,1.534,1.5343,0,0,0,0,0,1.521,1.5233,1.5227,1.5231,1.5247,1.5262,1.5264,1.5258,1.5247,1.5257,1.5256,1.5247,1.5275,1.5264,1.5267,1.5281,1.5311,1.5313,1.5315,1.5334,1.5339,1.5343,0,0,0,0,0,0,1.5231,1.5233,1.5227,1.5252,1.5257,1.5259,1.5271,1.5264,1.5272,1.527,1.5262,1.5263,1.5283,1.5284,1.5272,1.5306,1.5291,1.5294,1.5305,1.5309,1.5313,1.5311,1.5253,0,0,0,0,0,1.5239,1.5251,1.5252,1.5274,1.5276,1.5274,1.528,1.5275,1.528,1.5282,1.5282,1.5287,1.5297,1.5303,1.5312,1.5337,1.5336,1.5348,1.5351,1.5354,1.5356,1.5367,1.5372,1.5323,1.5323,1.5323,0,0,1.5255,1.5257,1.5265,1.5278,1.5281,1.5293,1.5275,1.5289,1.5298,1.5284,1.5301,1.5302,1.5306,1.5327,1.5336,1.5329,1.537,1.5357,1.5359,1.536,1.537,1.5374,1.5378,1.5325,1.5325,1.5324,0,0,1.5289,1.5293,1.531,1.5314,1.5319,1.5316,1.5321,1.5323,1.5323,1.534,1.533,1.5339,1.5357,1.536,1.5364,1.5397,1.5388,1.5401,1.5419,1.543,1.5434,1.5437,1.5447,1.5451,1.5403,1.5403,1.5403,0,1.5307,1.5326,1.532,1.5334,1.5339,1.5327,1.5343,1.5347,1.5355,1.5358,1.535,1.537,1.5372,1.5393,1.5401,1.5405,1.5408,1.54,1.5434,1.5437,1.544,1.545,1.5454,1.5405,1.5404,1.5404,1.5404,0,1.5347,1.536,1.5373,1.538,1.5387,1.5402,1.5398,1.5405,1.54,1.5398,1.5415,1.5417,1.5425,1.543,1.5425,1.545,1.5444,1.5435,1.5419,1.5446,1.5455,1.5459,1.5406,1.5406,1.5406,1.5405,0,0,1.5395,1.5398,1.5403,1.5405,1.5409,1.5418,1.5433,1.5441,1.5446,1.5452,1.5462,1.5477,1.5468,1.5472,1.5467,1.5477,1.5501,1.5466,1.5466,1.5471,1.5526,1.5531,1.5536,1.5496,1.5496,1.5497,1.5525,0,1.5427,1.5452,1.5446,1.547,1.548,1.5468,1.548,1.5484,1.5482,1.549,1.5489,1.5498,1.5487,1.5489,1.5498,1.5496,1.5512,1.5495,1.5504,1.5504,1.5501,1.5541,1.5547,1.5573,1.5528,1.5529,1.5529,0,1.5468,1.5475,1.5499,1.55,1.5504,1.5515,1.5521,1.5529,1.5532,1.553,1.5535,1.5528,1.554,1.5526,1.5542,1.5531,1.5534,1.5534,1.5535,1.5534,1.5517,1.5539,1.5582,1.5585,1.5535,1.5535,1.5534,0,1.5498,1.5513,1.5529,1.5531,1.5533,1.5541,1.5542,1.5544,1.5549,1.5554,1.5557,1.5564,1.5567,1.5572,1.5567,1.5557,1.5583,1.5569,1.5581,1.5581,1.5586,1.5586,1.5628,1.5591,1.5591,1.5591,1.5591,0,1.5534,1.5548,1.5542,1.5551,1.5567,1.5561,1.5576,1.5576,1.5578,1.5586,1.5577,1.5585,1.5579,1.5586,1.5582,1.5595,1.5597,1.5595,1.5594,1.5595,1.5595,1.5596,1.5594,1.5592,1.5592,1.5592,1.5592,0,1.5569,1.5565,1.5581,1.5582,1.5582,1.5593,1.5593,1.5601,1.5599,1.561,1.5612,1.5609,1.5617,1.5612,1.5621,1.5618,1.5634,1.5631,1.5633,1.5632,1.5644,1.5642,1.5687,1.5691,1.5654,1.5654,1.5654,0,1.5591,1.5602,1.5603,1.5608,1.5609,1.5618,1.5622,1.5616,1.5621,1.5624,1.5632,1.5639,1.5644,1.5658,1.5655,1.5662,1.5657,1.5673,1.5658,1.5659,1.5655,1.5654,1.5654,1.5675,1.5675,1.5676,1.5676,0,1.563,1.5627,1.5634,1.564,1.5645,1.565,1.5653,1.5658,1.5651,1.5657,1.5665,1.5669,1.5677,1.5684,1.5689,1.5689,1.5681,1.5681,1.5684,1.5684,1.5684,1.5683,1.5639,1.568,1.5679,1.5679,1.5679,1.5679,1.5658,1.5666,1.5668,1.5675,1.5677,1.568,1.5687,1.5686,1.5692,1.5698,1.5694,1.5703,1.5704,1.571,1.5711,1.5718,1.5712,1.5716,1.5717,1.5718,1.5719,1.5685,1.5719,1.5719,1.5719,1.5719,1.5719,0,1.5694,1.5694,1.5701,1.5706,1.5712,1.5704,1.5707,1.5712,1.572,1.5722,1.5727,1.5735,1.5742,1.574,1.5745,1.575,1.5747,1.5752,1.5751,1.575,1.5725,1.5721,1.5755,1.5755,1.5755,1.5755,1.5755,1.5755,1.5714,1.5727,1.5724,1.5738,1.5738,1.5746,1.5748,1.5751,1.5752,1.5762,1.5767,1.5765,1.5765,1.5771,1.5776,1.5775,1.5776,1.5783,1.578,1.5756,1.5752,1.5749,1.5745,1.5783,1.5783,1.5805,1.5805,1.5805]},{"header":{"parameterUnit":"m.s-1","parameterCategory":1,"la1":30.2991,"la2":30.254,"lo1":-89.0895,"lo2":-89.0444,"dy":0.0017,"dx":0.0017,"nx":28,"ny":28,"refTime":"2024-07-19T09:00:00:Z","depth":0,"parameterNumber":3,"parameterNumberName":"V-component_of_WINDS"},"data":[0,0,0,0,0,0,0,0,0,0,0,0,0,0,0,0,0,0,0,0,0,0,0,0,0,0,0,0,0,0,0,0,0,0,0,0,0,0,0,0,0,0,0,0,0,0,0,0,0,0,0,0,0,0,0,0,0,0,5.5633,5.5634,0,5.5758,5.5759,5.5761,5.5754,5.5752,5.575,5.5749,5.587,5.5875,5.5879,0,0,0,0,0,0,0,0,0,0,0,0,0,5.538,5.5385,5.5633,5.5634,5.5636,5.5758,5.5759,5.5761,5.5754,5.5752,5.575,5.5748,5.5868,5.5874,5.588,0,0,0,0,0,0,0,0,0,0,0,0,0,5.5496,5.5386,5.5633,5.5647,5.565,5.5757,5.5759,5.5761,5.5755,5.5752,5.5749,5.5747,5.5866,5.5873,5.5881,5.5979,0,0,5.5903,5.5906,0,0,0,0,0,0,0,0,5.5489,5.5505,5.5644,5.5647,5.565,5.5738,5.5715,5.5834,5.5755,5.5715,5.5749,5.5746,5.5828,5.5838,5.5867,5.5985,5.599,5.5904,5.5908,5.5911,5.5913,0,0,0,0,0,0,0,5.5481,5.55,5.5682,5.5646,5.5649,5.5645,5.5659,5.5737,5.5784,5.5718,5.5718,5.5733,5.5829,5.586,5.587,5.5992,5.5903,5.591,5.5914,5.5917,5.6194,5.6197,0,0,0,0,0,0,5.5471,5.5493,5.5678,5.5686,5.5562,5.5652,5.5667,5.5712,5.5784,5.5792,5.5735,5.5732,5.5849,5.5861,5.5874,5.5992,5.5911,5.5918,5.5922,5.6191,5.6194,5.6198,0,0,0,0,0,0,5.5466,5.5488,5.5673,5.559,5.5613,5.5659,5.571,5.5716,5.5747,5.5797,5.5804,5.5759,5.5847,5.5864,5.5953,5.5996,5.5921,5.5928,5.6187,5.6192,5.6196,5.623,0,0,0,0,0,0,5.5459,5.5486,5.5526,5.5591,5.5617,5.5752,5.5713,5.572,5.5761,5.5758,5.5821,5.5829,5.5846,5.5942,5.596,5.6005,5.5934,5.6184,5.6189,5.6195,5.6226,5.6235,5.6244,0,0,0,0,0,5.545,5.553,5.5528,5.555,5.5669,5.5755,5.577,5.5791,5.5764,5.5803,5.5835,5.5827,5.5989,5.5951,5.5972,5.6019,5.6181,5.6188,5.6194,5.6221,5.6234,5.6244,0,0,0,0,0,0,5.5467,5.5538,5.5537,5.5641,5.5692,5.5754,5.5804,5.5803,5.5861,5.5856,5.5876,5.5891,5.598,5.6009,5.5965,5.6117,5.6081,5.6092,5.6095,5.6107,5.6116,5.6106,5.594,0,0,0,0,0,5.5483,5.555,5.5608,5.5694,5.572,5.5757,5.5796,5.5807,5.586,5.5881,5.5919,5.5968,5.603,5.607,5.613,5.623,5.6242,5.6273,5.6282,5.6289,5.6298,5.635,5.6363,5.6219,5.6219,5.6219,0,0,5.5516,5.5564,5.5604,5.5698,5.5739,5.5805,5.5775,5.5847,5.5895,5.5891,5.5978,5.6007,5.6063,5.6158,5.6201,5.6185,5.634,5.6298,5.6303,5.6308,5.6358,5.6372,5.6384,5.6224,5.6223,5.6222,0,0,5.5611,5.5655,5.573,5.5772,5.5835,5.5859,5.5877,5.5939,5.5959,5.6047,5.6044,5.61,5.6208,5.6247,5.6281,5.6389,5.6383,5.6408,5.6455,5.6506,5.6517,5.6527,5.6563,5.6576,5.6416,5.6417,5.6417,0,5.5644,5.5745,5.5768,5.584,5.588,5.5882,5.5956,5.5995,5.6073,5.6099,5.608,5.6213,5.6251,5.6354,5.638,5.6408,5.6427,5.64,5.6514,5.6524,5.6534,5.6568,5.6582,5.6419,5.6419,5.6419,5.6418,0,5.5781,5.5851,5.5904,5.5982,5.6028,5.61,5.6132,5.6175,5.6182,5.6207,5.6295,5.6341,5.6409,5.6435,5.6442,5.6537,5.6525,5.651,5.6474,5.655,5.6582,5.6596,5.6423,5.6422,5.6421,5.642,0,0,5.589,5.5979,5.5997,5.6031,5.61,5.6154,5.6225,5.6294,5.6329,5.6383,5.6441,5.6531,5.6517,5.6556,5.6567,5.6612,5.6691,5.6591,5.6592,5.6606,5.6796,5.6806,5.6821,5.6688,5.6691,5.6693,5.6791,0,5.5989,5.6119,5.6141,5.6252,5.6316,5.6317,5.6379,5.6426,5.6452,5.6507,5.6534,5.6597,5.6575,5.6598,5.6643,5.6672,5.6729,5.6666,5.6739,5.6742,5.6724,5.6838,5.6849,5.6939,5.6804,5.6806,5.6808,0,5.6123,5.6181,5.63,5.6359,5.6386,5.6442,5.6505,5.6559,5.6611,5.6626,5.6669,5.6675,5.6746,5.6708,5.6805,5.6761,5.6792,5.6811,5.6815,5.6821,5.6778,5.6845,5.6969,5.6981,5.6828,5.6827,5.6825,0,5.6187,5.6295,5.638,5.6409,5.648,5.6519,5.655,5.66,5.6639,5.6694,5.6719,5.678,5.6813,5.686,5.6881,5.6852,5.6975,5.6939,5.6987,5.6986,5.7011,5.7009,5.7139,5.7035,5.7035,5.7034,5.7034,0,5.6295,5.6366,5.6409,5.6461,5.654,5.6564,5.6641,5.6671,5.6715,5.677,5.6775,5.6826,5.6852,5.6907,5.6924,5.6999,5.7015,5.7026,5.703,5.7025,5.7023,5.7044,5.7038,5.7038,5.7037,5.7037,5.7036,0,5.6379,5.6411,5.6503,5.6563,5.6579,5.6635,5.6685,5.6734,5.6759,5.6829,5.6846,5.6885,5.6949,5.6975,5.7053,5.7064,5.715,5.715,5.7133,5.7134,5.7179,5.7173,5.7325,5.7345,5.723,5.7231,5.7232,0,5.6445,5.65,5.6566,5.6605,5.6637,5.6699,5.6739,5.6764,5.6804,5.6868,5.6908,5.6973,5.7025,5.7127,5.716,5.7219,5.7219,5.7268,5.7228,5.722,5.7217,5.7212,5.7217,5.7275,5.7276,5.7277,5.7278,0,5.6557,5.657,5.6629,5.6693,5.6741,5.6792,5.6842,5.6872,5.6904,5.6949,5.7016,5.7057,5.7137,5.7199,5.726,5.7289,5.7288,5.7291,5.7304,5.7299,5.7286,5.7291,5.7151,5.7286,5.7286,5.7285,5.7284,5.7284,5.6632,5.6681,5.6735,5.6799,5.6839,5.6886,5.6934,5.6965,5.7022,5.709,5.7101,5.7171,5.722,5.7302,5.7333,5.7386,5.7373,5.7394,5.7398,5.7403,5.7404,5.7279,5.7398,5.7398,5.7397,5.7397,5.7397,0,5.6742,5.6777,5.6837,5.6907,5.6957,5.6954,5.7008,5.7049,5.7112,5.7159,5.7211,5.7286,5.7346,5.7385,5.7445,5.748,5.7481,5.7495,5.7491,5.7497,5.7414,5.7395,5.7493,5.7493,5.7493,5.7493,5.7493,5.7493,5.6806,5.6887,5.6906,5.7006,5.7039,5.711,5.7141,5.7182,5.7219,5.7303,5.7355,5.738,5.7422,5.7486,5.754,5.755,5.757,5.7585,5.7593,5.7514,5.7504,5.7494,5.7476,5.759,5.759,5.7672,5.7673,5.7674]}]]